Regional Weather Roundup
Issued by NWS

Home | Current Version | Previous Version | Text Only | Print | Product List | Glossary Off
Versions: 1 2 3 4 5 6 7 8 9 10 11 12 13 14 15 16 17 18 19 20 21 22 23 24 25 26 27 28 29 30 31 32 33 34 35 36 37 38 39 40 41 42 43 44 45 46 47 48 49 50

994
ASUS43 KBIS 030602
RWRND

NORTH DAKOTA REGIONAL WEATHER ROUNDUP
NATIONAL WEATHER SERVICE BISMARCK ND
1200 AM CST SAT DEC 03 2016

NOTE: "FAIR" INDICATES FEW OR NO CLOUDS BELOW 12,000 FEET WITH NO
SIGNIFICANT WEATHER AND/OR OBSTRUCTIONS TO VISIBILITY.


NDZ001>003-009>011-017-030700-
NORTHWEST NORTH DAKOTA

CITY           SKY/WX    TMP DP  RH WIND       PRES   REMARKS
WILLISTON      CLEAR     23  20  88 S5        30.02F WCI  17
6HR MIN TEMP:  21; 6HR MAX TEMP:  30;

MINOT          CLEAR     26  23  88 SE8       30.08F WCI  18
MINOT AFB      CLEAR     23  21  91 S14       30.07F WCI  11
$$

NDZ018>021-031>035-040>046-030700-
SOUTHWEST NORTH DAKOTA

CITY           SKY/WX    TMP DP  RH WIND       PRES   REMARKS
BISMARCK       CLOUDY    24  22  91 SE6       30.16F WCI  17
6HR MIN TEMP:  15; 6HR MAX TEMP:  26;

DICKINSON      CLEAR     16  14  92 S10       30.04F WCI   4
GARRISON         N/A     27  25  92 S12       30.10F WCI  17
6HR MIN TEMP:  24; 6HR MAX TEMP:  29;

HETTINGER ARPT CLEAR     19  17  92 SE6       30.10F WCI  11
$$

NDZ004>008-012>016-024-026-027-054-030700-
NORTHEAST NORTH DAKOTA

CITY           SKY/WX    TMP DP  RH WIND       PRES   REMARKS
GRAND FORKS    CLOUDY    30  21  69 SW8       30.25S
GRND FRKS AFB  CLOUDY    29  20  70 SW7       30.25R
DEVILS LAKE    CLOUDY    25  20  81 S12       30.19F WCI  14
$$

NDZ022-023-025-028>030-036>039-047>053-030700-
SOUTHEAST NORTH DAKOTA

CITY           SKY/WX    TMP DP  RH WIND       PRES   REMARKS
FARGO          CLOUDY    27  18  69 SW7       30.28F WCI  19
6HR MIN TEMP:  27; 6HR MAX TEMP:  30;

JAMESTOWN      CLOUDY    23  19  85 S8        30.21F WCI  14
$$





USA.gov is the U.S. government's official web portal to all federal, state and local government web resources and services.